Weather in Petropavlovka

Russia / Khabarovsk Krai     48°40′54″N   135°31′25″E
temp.,
°C
wind,
m/s
gust,
m/s
humid.,
%
clouds,
%
prec.,
mm/h
press.,
hPa
HPBL,
m
26 july, mon
mon2601:00+22s3386100 0.8 100518
04:00+20sw129393 1.8 100513
07:00+22sse229379 0.6 100546
10:00+25sse3580100 0.6 1005264
13:00+27sw6863100 0.0 1004555
16:00+28wsw475756 0.0 1003768
19:00+27nne2269100 0.0 100218
22:00+25e227399 0.0 100311
27 july, tue
tue2701:00+23e2282100 1.0 100313
04:00+22s118499 1.0 100313
07:00+22nw1287100 0.0 100437
10:00+25sw1280100 0.0 1004196
13:00+26w2375100 0.0 1003457
16:00+27w237025 0.0 1003485
19:00+27wnw1273100 0.0 100135
22:00+24ne4684100 0.0 100270
28 july, wed
wed2801:00+22nne468492 0.0 100284
04:00+20nne469095 0.0 100374
07:00+21ne348940 0.0 100386
10:00+24ne237512 0.0 1003219
13:00+27wsw11697 0.0 1001403
16:00+27w22685 0.0 1000401
19:00+28ne11670 0.0 99825
22:00+25se00645 0.0 99811
29 july, thu
thu2901:00+24sse126629 0.0 99811
04:00+21w229057 1.2 99811
07:00+22s23927 2.3 99868
10:00+24sw228749 5.2 998219
13:00+26w357888 2.3 997559
16:00+27wnw4574100 2.6 995313
19:00+27w467494 0.0 995214
22:00+25sw337699 0.0 99617
30 july, fri
fri3001:00+23ssw447899 0.0 99552
04:00+23sw3576100 0.0 99586
07:00+22sw478269 0.0 996157
10:00+24wsw68735 0.0 997439
13:00+26wsw69600 0.0 996861
16:00+27w57570 0.0 995766
19:00+27wsw23630 0.0 995121
22:00+25ssw336170 0.0 99717